Time,TemperatureF,DewpointF,PressureIn,WindDirection,WindDirectionDegrees,WindSpeedMPH,WindSpeedGustMPH,Humidity,HourlyPrecipIn,Conditions,Clouds,dailyrainin,SoftwareType,DateUTC
2013-10-18 00:00:00,54.1,50.9,29.97,NNE,22,2.0,2.0,89,0.00,,SKC,0.00,VWS V14.01,2013-10-18 04:00:00,
2013-10-18 00:01:00,54.1,50.9,29.97,NNW,338,3.0,4.0,89,0.00,,SKC,0.00,VWS V14.01,2013-10-18 04:01:00,
2013-10-18 00:02:00,54.1,50.9,29.97,NNW,336,1.0,4.0,89,0.00,,SKC,0.00,VWS V14.01,2013-10-18 04:02:00,
2013-10-18 00:07:00,53.9,50.7,29.97,NNE,30,2.0,6.0,89,0.00,,SKC,0.00,VWS V14.01,2013-10-18 04:07:00,
2013-10-18 00:12:00,53.8,50.6,29.97,North,11,3.0,6.0,89,0.00,,SKC,0.00,VWS V14.01,2013-10-18 04:12:00,
2013-10-18 00:17:00,53.8,50.6,29.97,NE,49,4.0,9.0,89,0.00,,SKC,0.00,VWS V14.01,2013-10-18 04:17:00,
2013-10-18 00:22:00,53.7,50.5,29.97,NNW,331,4.0,9.0,89,0.00,,SKC,0.00,VWS V14.01,2013-10-18 04:22:00,
2013-10-18 00:27:00,53.6,50.4,29.97,NW,320,3.0,9.0,89,0.00,,SKC,0.00,VWS V14.01,2013-10-18 04:27:00,
2013-10-18 00:30:00,53.6,50.4,29.97,North,1,2.0,9.0,89,0.00,,SKC,0.00,VWS V14.01,2013-10-18 04:30:00,
2013-10-18 00:32:00,53.6,50.4,29.97,NNW,345,4.0,7.0,89,0.00,,SKC,0.00,VWS V14.01,2013-10-18 04:32:00,
2013-10-18 00:37:00,53.5,50.3,29.97,NNE,12,2.0,7.0,89,0.00,,SKC,0.00,VWS V14.01,2013-10-18 04:37:00,
2013-10-18 00:42:00,53.4,50.2,29.97,North,353,3.0,7.0,89,0.00,,SKC,0.00,VWS V14.01,2013-10-18 04:42:00,
2013-10-18 00:46:00,53.4,50.2,29.97,NNE,20,2.0,7.0,89,0.00,,SKC,0.00,VWS V14.01,2013-10-18 04:46:00,
2013-10-18 00:52:00,53.3,50.5,29.97,NNW,340,2.0,7.0,90,0.00,,SKC,0.00,VWS V14.01,2013-10-18 04:52:00,
2013-10-18 00:57:00,53.1,50.2,29.97,NNW,343,6.0,7.0,90,0.00,,SKC,0.00,VWS V14.01,2013-10-18 04:57:00,
2013-10-18 01:00:00,53.0,50.2,29.96,North,357,3.0,7.0,90,0.00,,SKC,0.00,VWS V14.01,2013-10-18 05:00:00,
2013-10-18 01:01:00,53.0,50.2,29.97,NNE,29,1.0,4.0,90,0.00,,SKC,0.00,VWS V14.01,2013-10-18 05:01:00,
2013-10-18 01:06:00,52.9,50.0,29.97,WSW,257,2.0,4.0,90,0.00,,SKC,0.00,VWS V14.01,2013-10-18 05:06:00,
2013-10-18 01:11:00,52.7,49.8,29.97,NNW,329,1.0,6.0,90,0.00,,SKC,0.00,VWS V14.01,2013-10-18 05:11:00,
2013-10-18 01:16:00,52.5,50.0,29.97,NW,326,2.0,6.0,91,0.00,,SKC,0.00,VWS V14.01,2013-10-18 05:16:00,
2013-10-18 01:21:00,52.4,49.8,29.97,NW,323,1.0,6.0,91,0.00,,SKC,0.00,VWS V14.01,2013-10-18 05:21:00,
2013-10-18 01:26:00,52.2,49.7,29.97,North,1,1.0,6.0,91,0.00,,SKC,0.00,VWS V14.01,2013-10-18 05:26:00,
2013-10-18 01:30:00,52.2,49.7,29.97,West,266,0.0,6.0,91,0.00,,SKC,0.00,VWS V14.01,2013-10-18 05:30:00,
2013-10-18 01:31:00,52.1,49.8,29.97,West,266,0.0,2.0,92,0.00,,SKC,0.00,VWS V14.01,2013-10-18 05:31:00,
2013-10-18 01:36:00,52.0,49.8,29.97,North,8,3.0,6.0,92,0.00,,SKC,0.00,VWS V14.01,2013-10-18 05:36:00,
2013-10-18 01:41:00,51.9,49.7,29.97,NNW,332,4.0,6.0,92,0.00,,SKC,0.00,VWS V14.01,2013-10-18 05:41:00,
2013-10-18 01:46:00,51.8,49.5,29.97,North,359,4.0,6.0,92,0.00,,SKC,0.00,VWS V14.01,2013-10-18 05:46:00,
2013-10-18 01:51:00,51.8,49.5,29.98,North,356,3.0,6.0,92,0.00,,SKC,0.00,VWS V14.01,2013-10-18 05:51:00,
2013-10-18 01:56:00,51.8,49.5,29.98,NNE,13,2.0,6.0,92,0.00,,SKC,0.00,VWS V14.01,2013-10-18 05:56:00,
2013-10-18 02:00:00,51.8,49.5,29.98,North,353,3.0,6.0,92,0.00,,SKC,0.00,VWS V14.01,2013-10-18 06:00:00,
2013-10-18 02:01:00,51.7,49.5,29.98,NNW,329,4.0,4.0,92,0.00,,SKC,0.00,VWS V14.01,2013-10-18 06:01:00,
2013-10-18 02:06:00,51.7,49.5,29.98,NNW,347,3.0,5.0,92,0.00,,SKC,0.00,VWS V14.01,2013-10-18 06:06:00,
2013-10-18 02:11:00,51.6,49.4,29.98,North,3,3.0,6.0,92,0.00,,SKC,0.00,VWS V14.01,2013-10-18 06:11:00,
2013-10-18 02:16:00,51.5,49.5,29.98,NNW,340,3.0,7.0,93,0.00,,SKC,0.00,VWS V14.01,2013-10-18 06:16:00,
2013-10-18 02:21:00,51.5,49.5,29.98,NNW,327,4.0,7.0,93,0.00,,SKC,0.00,VWS V14.01,2013-10-18 06:21:00,
2013-10-18 02:26:00,51.4,49.5,29.98,NW,317,3.0,7.0,93,0.00,,SKC,0.00,VWS V14.01,2013-10-18 06:26:00,
2013-10-18 02:30:00,51.4,49.5,29.98,NNW,332,1.0,7.0,93,0.00,,SKC,0.00,VWS V14.01,2013-10-18 06:30:00,
2013-10-18 02:31:00,51.4,49.5,29.98,NNW,336,2.0,3.0,93,0.00,,SKC,0.00,VWS V14.01,2013-10-18 06:31:00,
2013-10-18 02:36:00,51.4,49.5,29.98,NNW,331,1.0,4.0,93,0.00,,SKC,0.00,VWS V14.01,2013-10-18 06:36:00,
2013-10-18 02:41:00,51.4,49.5,29.98,NNW,331,1.0,4.0,93,0.00,,SKC,0.00,VWS V14.01,2013-10-18 06:41:00,
2013-10-18 02:46:00,51.4,49.5,29.98,NE,51,1.0,6.0,93,0.00,,SKC,0.00,VWS V14.01,2013-10-18 06:46:00,
2013-10-18 02:51:00,51.4,49.5,29.98,North,5,3.0,6.0,93,0.00,,SKC,0.00,VWS V14.01,2013-10-18 06:51:00,
2013-10-18 02:56:00,51.4,49.5,29.98,NE,37,1.0,6.0,93,0.00,,SKC,0.00,VWS V14.01,2013-10-18 06:56:00,
2013-10-18 03:00:00,51.4,49.5,29.98,NNW,336,2.0,6.0,93,0.00,,SKC,0.00,VWS V14.01,2013-10-18 07:00:00,
2013-10-18 03:01:00,51.4,49.2,29.98,NNW,331,3.0,4.0,92,0.00,,SKC,0.00,VWS V14.01,2013-10-18 07:01:00,
2013-10-18 03:06:00,51.3,49.1,29.98,NNW,333,1.0,4.0,92,0.00,,SKC,0.00,VWS V14.01,2013-10-18 07:06:00,
2013-10-18 03:11:00,51.3,49.1,29.98,NW,317,2.0,4.0,92,0.00,,SKC,0.00,VWS V14.01,2013-10-18 07:11:00,
2013-10-18 03:16:00,51.4,49.5,29.98,NE,51,1.0,4.0,93,0.00,,SKC,0.00,VWS V14.01,2013-10-18 07:16:00,
2013-10-18 03:21:00,51.4,49.2,29.97,North,11,2.0,4.0,92,0.00,,SKC,0.00,VWS V14.01,2013-10-18 07:21:00,
2013-10-18 03:26:00,51.4,49.2,29.97,NNE,13,2.0,4.0,92,0.00,,SKC,0.00,VWS V14.01,2013-10-18 07:26:00,
2013-10-18 03:30:00,51.3,49.1,29.97,North,6,4.0,4.0,92,0.00,,SKC,0.00,VWS V14.01,2013-10-18 07:30:00,
2013-10-18 03:31:00,51.3,49.1,29.97,NNW,335,3.0,4.0,92,0.00,,SKC,0.00,VWS V14.01,2013-10-18 07:31:00,
2013-10-18 03:36:00,51.3,49.1,29.97,North,359,1.0,4.0,92,0.00,,SKC,0.00,VWS V14.01,2013-10-18 07:36:00,
2013-10-18 03:41:00,51.3,49.1,29.97,NNW,332,2.0,6.0,92,0.00,,SKC,0.00,VWS V14.01,2013-10-18 07:41:00,
2013-10-18 03:46:00,51.2,48.7,29.97,NNE,16,3.0,7.0,91,0.00,,SKC,0.00,VWS V14.01,2013-10-18 07:46:00,
2013-10-18 03:51:00,51.2,48.7,29.97,North,356,2.0,7.0,91,0.00,,SKC,0.00,VWS V14.01,2013-10-18 07:51:00,
2013-10-18 03:56:00,51.2,48.7,29.97,NNE,29,2.0,7.0,91,0.00,,SKC,0.00,VWS V14.01,2013-10-18 07:56:00,
2013-10-18 04:00:00,51.2,48.7,29.97,NE,43,3.0,7.0,91,0.00,,SKC,0.00,VWS V14.01,2013-10-18 08:00:00,
2013-10-18 04:01:00,51.1,48.6,29.97,NNW,336,1.0,2.0,91,0.00,,SKC,0.00,VWS V14.01,2013-10-18 08:01:00,
2013-10-18 04:06:00,51.0,48.5,29.97,NE,34,1.0,3.0,91,0.00,,SKC,0.00,VWS V14.01,2013-10-18 08:06:00,
2013-10-18 04:11:00,50.9,48.4,29.97,NE,34,0.0,3.0,91,0.00,,SKC,0.00,VWS V14.01,2013-10-18 08:11:00,
2013-10-18 04:16:00,50.8,48.6,29.97,North,1,0.0,3.0,92,0.00,,SKC,0.00,VWS V14.01,2013-10-18 08:16:00,
2013-10-18 04:21:00,50.7,48.5,29.97,North,352,3.0,4.0,92,0.00,,SKC,0.00,VWS V14.01,2013-10-18 08:21:00,
2013-10-18 04:26:00,50.7,48.5,29.97,North,353,4.0,4.0,92,0.00,,SKC,0.00,VWS V14.01,2013-10-18 08:26:00,
2013-10-18 04:30:00,50.6,48.4,29.97,NNE,26,1.0,4.0,92,0.00,,SKC,0.00,VWS V14.01,2013-10-18 08:30:00,
2013-10-18 04:31:00,50.6,48.4,29.97,NNE,26,0.0,1.0,92,0.00,,SKC,0.00,VWS V14.01,2013-10-18 08:31:00,
2013-10-18 04:36:00,50.5,48.3,29.97,NNW,332,3.0,4.0,92,0.00,,SKC,0.00,VWS V14.01,2013-10-18 08:36:00,
2013-10-18 04:41:00,50.4,48.2,29.97,North,352,1.0,5.0,92,0.00,,SKC,0.00,VWS V14.01,2013-10-18 08:41:00,
2013-10-18 04:46:00,50.3,48.1,29.97,NW,323,1.0,5.0,92,0.00,,SKC,0.00,VWS V14.01,2013-10-18 08:46:00,
2013-10-18 04:51:00,50.1,47.9,29.97,North,11,2.0,5.0,92,0.00,,SKC,0.00,VWS V14.01,2013-10-18 08:51:00,
2013-10-18 04:56:00,50.0,47.8,29.97,NNE,18,1.0,5.0,92,0.00,,SKC,0.00,VWS V14.01,2013-10-18 08:56:00,
2013-10-18 05:00:00,49.9,47.7,29.98,NNW,336,0.0,5.0,92,0.00,,SKC,0.00,VWS V14.01,2013-10-18 09:00:00,
2013-10-18 05:01:00,49.9,47.7,29.98,NNW,336,0.0,0.0,92,0.00,,SKC,0.00,VWS V14.01,2013-10-18 09:01:00,
2013-10-18 05:06:00,49.7,47.8,29.98,NNW,330,0.0,2.0,93,0.00,,SKC,0.00,VWS V14.01,2013-10-18 09:06:00,
2013-10-18 05:11:00,49.4,47.5,29.98,North,11,2.0,5.0,93,0.00,,SKC,0.00,VWS V14.01,2013-10-18 09:11:00,
2013-10-18 05:16:00,49.3,47.4,29.98,NNW,331,1.0,5.0,93,0.00,,SKC,0.00,VWS V14.01,2013-10-18 09:16:00,
2013-10-18 05:21:00,49.1,47.2,29.98,NNW,339,1.0,5.0,93,0.00,,SKC,0.00,VWS V14.01,2013-10-18 09:21:00,
2013-10-18 05:26:00,48.9,47.2,29.98,North,1,2.0,5.0,94,0.00,,SKC,0.00,VWS V14.01,2013-10-18 09:26:00,
2013-10-18 05:30:00,48.8,47.2,29.98,North,360,2.0,5.0,94,0.00,,SKC,0.00,VWS V14.01,2013-10-18 09:30:00,
2013-10-18 05:31:00,48.7,47.0,29.98,NNE,28,2.0,2.0,94,0.00,,SKC,0.00,VWS V14.01,2013-10-18 09:31:00,
2013-10-18 05:36:00,48.5,46.9,29.98,NNE,22,2.0,3.0,94,0.00,,SKC,0.00,VWS V14.01,2013-10-18 09:36:00,
2013-10-18 05:41:00,48.3,46.7,29.98,North,6,1.0,3.0,94,0.00,,SKC,0.00,VWS V14.01,2013-10-18 09:41:00,
2013-10-18 05:46:00,48.1,46.7,29.98,NNE,22,1.0,3.0,95,0.00,,SKC,0.00,VWS V14.01,2013-10-18 09:46:00,
2013-10-18 05:51:00,48.0,46.6,29.99,NNE,23,1.0,4.0,95,0.00,,SKC,0.00,VWS V14.01,2013-10-18 09:51:00,
2013-10-18 05:56:00,47.9,46.5,29.99,ENE,58,2.0,4.0,95,0.00,,SKC,0.00,VWS V14.01,2013-10-18 09:56:00,
2013-10-18 06:00:00,47.8,46.4,29.99,NNE,15,1.0,4.0,95,0.00,,SKC,0.00,VWS V14.01,2013-10-18 10:00:00,
2013-10-18 06:01:00,47.7,46.3,29.99,NNE,15,1.0,2.0,95,0.00,,SKC,0.00,VWS V14.01,2013-10-18 10:01:00,
2013-10-18 06:06:00,47.5,46.1,29.99,North,6,1.0,3.0,95,0.00,,SKC,0.00,VWS V14.01,2013-10-18 10:06:00,
2013-10-18 06:11:00,47.4,46.0,29.99,North,8,2.0,3.0,95,0.00,,SKC,0.00,VWS V14.01,2013-10-18 10:11:00,
2013-10-18 06:16:00,47.3,45.9,30.00,NNE,32,2.0,4.0,95,0.00,,SKC,0.00,VWS V14.01,2013-10-18 10:16:00,
2013-10-18 06:21:00,47.3,45.9,30.00,NE,53,1.0,4.0,95,0.00,,SKC,0.00,VWS V14.01,2013-10-18 10:21:00,
2013-10-18 06:26:00,47.1,45.7,30.00,NE,55,1.0,4.0,95,0.00,,SKC,0.00,VWS V14.01,2013-10-18 10:26:00,
2013-10-18 06:30:00,47.0,45.9,30.00,NNE,26,0.0,4.0,96,0.00,,SKC,0.00,VWS V14.01,2013-10-18 10:30:00,
2013-10-18 06:31:00,47.0,45.9,30.00,NNE,25,1.0,2.0,96,0.00,,SKC,0.00,VWS V14.01,2013-10-18 10:31:00,
2013-10-18 06:36:00,46.8,45.7,30.00,NNE,26,0.0,2.0,96,0.00,,SKC,0.00,VWS V14.01,2013-10-18 10:36:00,
2013-10-18 06:41:00,46.6,45.5,30.00,NNE,25,1.0,2.0,96,0.00,,SKC,0.00,VWS V14.01,2013-10-18 10:41:00,
2013-10-18 06:46:00,46.4,45.3,30.00,NNE,25,0.0,2.0,96,0.00,,SKC,0.00,VWS V14.01,2013-10-18 10:46:00,
2013-10-18 06:51:00,46.3,45.2,30.00,NNE,25,1.0,2.0,96,0.00,,SKC,0.00,VWS V14.01,2013-10-18 10:51:00,
2013-10-18 06:56:00,46.1,45.0,30.00,NNE,25,0.0,2.0,96,0.00,,SKC,0.00,VWS V14.01,2013-10-18 10:56:00,
2013-10-18 07:00:00,46.0,44.9,30.01,NNE,25,1.0,2.0,96,0.00,,SKC,0.00,VWS V14.01,2013-10-18 11:00:00,
2013-10-18 07:01:00,45.9,44.8,30.01,NNE,25,0.0,1.0,96,0.00,,SKC,0.00,VWS V14.01,2013-10-18 11:01:00,
2013-10-18 07:06:00,45.8,45.0,30.01,NNE,25,0.0,1.0,97,0.00,,SKC,0.00,VWS V14.01,2013-10-18 11:06:00,
2013-10-18 07:11:00,45.7,44.9,30.01,NNE,26,0.0,1.0,97,0.00,,SKC,0.00,VWS V14.01,2013-10-18 11:11:00,
2013-10-18 07:16:00,45.5,44.7,30.01,NNE,25,0.0,1.0,97,0.00,,SKC,0.00,VWS V14.01,2013-10-18 11:16:00,
2013-10-18 07:21:00,45.5,44.7,30.01,NNE,25,0.0,1.0,97,0.00,,SKC,0.00,VWS V14.01,2013-10-18 11:21:00,
2013-10-18 07:26:00,45.3,44.5,30.02,NNE,25,0.0,1.0,97,0.00,,SKC,0.00,VWS V14.01,2013-10-18 11:26:00,
2013-10-18 07:30:00,45.2,44.4,30.02,NNE,25,0.0,1.0,97,0.00,,SKC,0.00,VWS V14.01,2013-10-18 11:30:00,
2013-10-18 07:31:00,45.2,44.4,30.02,NNE,26,0.0,0.0,97,0.00,,SKC,0.00,VWS V14.01,2013-10-18 11:31:00,
2013-10-18 07:36:00,45.1,44.3,30.02,NNE,25,0.0,0.0,97,0.00,,SKC,0.00,VWS V14.01,2013-10-18 11:36:00,
2013-10-18 07:41:00,44.8,44.0,30.02,NNE,26,0.0,0.0,97,0.00,,SKC,0.00,VWS V14.01,2013-10-18 11:41:00,
2013-10-18 07:46:00,44.4,43.6,30.02,NNE,25,0.0,0.0,97,0.00,,SKC,0.00,VWS V14.01,2013-10-18 11:46:00,
2013-10-18 07:51:00,44.2,43.4,30.02,NNE,26,1.0,1.0,97,0.00,,SKC,0.00,VWS V14.01,2013-10-18 11:51:00,
2013-10-18 07:56:00,44.1,43.3,30.02,NNE,26,0.0,1.0,97,0.00,,SKC,0.00,VWS V14.01,2013-10-18 11:56:00,
2013-10-18 08:00:00,44.0,43.5,30.03,NNE,26,0.0,1.0,98,0.00,,SKC,0.00,VWS V14.01,2013-10-18 12:00:00,
2013-10-18 08:01:00,44.0,43.5,30.03,NNE,26,0.0,0.0,98,0.00,,SKC,0.00,VWS V14.01,2013-10-18 12:01:00,
2013-10-18 08:06:00,43.9,43.4,30.03,NNE,26,0.0,1.0,98,0.00,,SKC,0.00,VWS V14.01,2013-10-18 12:06:00,
2013-10-18 08:11:00,43.9,43.4,30.03,NNE,25,0.0,1.0,98,0.00,,SKC,0.00,VWS V14.01,2013-10-18 12:11:00,
2013-10-18 08:16:00,44.0,43.5,30.03,NNE,26,0.0,1.0,98,0.00,,SKC,0.00,VWS V14.01,2013-10-18 12:16:00,
2013-10-18 08:21:00,44.4,43.9,30.03,NNE,25,0.0,1.0,98,0.00,,SKC,0.00,VWS V14.01,2013-10-18 12:21:00,
2013-10-18 08:26:00,44.5,44.0,30.03,NNE,25,0.0,1.0,98,0.00,,SKC,0.00,VWS V14.01,2013-10-18 12:26:00,
2013-10-18 08:30:00,44.6,44.1,30.04,NNE,25,0.0,1.0,98,0.00,,SKC,0.00,VWS V14.01,2013-10-18 12:30:00,
2013-10-18 08:31:00,44.6,44.1,30.04,NNE,26,0.0,0.0,98,0.00,,SKC,0.00,VWS V14.01,2013-10-18 12:31:00,
2013-10-18 08:36:00,44.8,44.3,30.04,NNE,25,0.0,0.0,98,0.00,,SKC,0.00,VWS V14.01,2013-10-18 12:36:00,
2013-10-18 08:41:00,45.3,45.0,30.04,NNE,26,0.0,1.0,99,0.00,,SKC,0.00,VWS V14.01,2013-10-18 12:41:00,
2013-10-18 08:46:00,45.7,45.4,30.05,NNE,25,0.0,1.0,99,0.00,,SKC,0.00,VWS V14.01,2013-10-18 12:46:00,
2013-10-18 08:51:00,46.0,45.7,30.05,NNE,26,0.0,1.0,99,0.00,,SKC,0.00,VWS V14.01,2013-10-18 12:51:00,
2013-10-18 08:56:00,46.3,46.0,30.05,NNE,26,0.0,1.0,99,0.00,,SKC,0.00,VWS V14.01,2013-10-18 12:56:00,
2013-10-18 09:00:00,46.5,46.2,30.05,NNE,25,1.0,2.0,99,0.00,,SKC,0.00,VWS V14.01,2013-10-18 13:00:00,
2013-10-18 09:01:00,46.7,46.4,30.05,NNE,26,1.0,2.0,99,0.00,,SKC,0.00,VWS V14.01,2013-10-18 13:01:00,
2013-10-18 09:06:00,47.2,46.9,30.06,NNE,26,1.0,3.0,99,0.00,,SKC,0.00,VWS V14.01,2013-10-18 13:06:00,
2013-10-18 09:11:00,47.6,47.1,30.06,NNE,26,1.0,3.0,98,0.00,,SKC,0.00,VWS V14.01,2013-10-18 13:11:00,
2013-10-18 09:16:00,48.1,47.3,30.06,NNE,26,2.0,3.0,97,0.00,,SKC,0.00,VWS V14.01,2013-10-18 13:16:00,
2013-10-18 09:21:00,48.6,47.2,30.06,NNE,25,2.0,3.0,95,0.00,,SKC,0.00,VWS V14.01,2013-10-18 13:21:00,
2013-10-18 09:26:00,49.1,47.5,30.06,NNE,27,1.0,3.0,94,0.00,,SKC,0.00,VWS V14.01,2013-10-18 13:26:00,
2013-10-18 09:30:00,49.4,47.8,30.06,NNE,22,1.0,3.0,94,0.00,,SKC,0.00,VWS V14.01,2013-10-18 13:30:00,
2013-10-18 09:31:00,49.4,47.5,30.06,NNE,22,0.0,1.0,93,0.00,,SKC,0.00,VWS V14.01,2013-10-18 13:31:00,
2013-10-18 09:36:00,49.7,47.5,30.06,NNE,21,1.0,2.0,92,0.00,,SKC,0.00,VWS V14.01,2013-10-18 13:36:00,
2013-10-18 09:41:00,50.1,47.3,30.06,NNE,22,1.0,2.0,90,0.00,,SKC,0.00,VWS V14.01,2013-10-18 13:41:00,
2013-10-18 09:46:00,50.5,47.7,30.06,NNW,333,1.0,4.0,90,0.00,,SKC,0.00,VWS V14.01,2013-10-18 13:46:00,
2013-10-18 09:51:00,50.8,47.7,30.06,North,360,2.0,4.0,89,0.00,,SKC,0.00,VWS V14.01,2013-10-18 13:51:00,
2013-10-18 09:56:00,51.2,48.1,30.06,NNE,16,3.0,4.0,89,0.00,,SKC,0.00,VWS V14.01,2013-10-18 13:56:00,
2013-10-18 10:00:00,51.4,48.0,30.06,North,359,2.0,4.0,88,0.00,,SKC,0.00,VWS V14.01,2013-10-18 14:00:00,
2013-10-18 10:01:00,51.5,47.8,30.06,NNW,347,2.0,3.0,87,0.00,,SKC,0.00,VWS V14.01,2013-10-18 14:01:00,
2013-10-18 10:06:00,51.6,47.2,30.06,WNW,297,1.0,5.0,85,0.00,,SKC,0.00,VWS V14.01,2013-10-18 14:06:00,
2013-10-18 10:11:00,51.8,47.1,30.06,NNE,20,2.0,5.0,84,0.00,,SKC,0.00,VWS V14.01,2013-10-18 14:11:00,
2013-10-18 10:16:00,52.0,47.3,30.06,NNE,33,2.0,5.0,84,0.00,,SKC,0.00,VWS V14.01,2013-10-18 14:16:00,
2013-10-18 10:21:00,52.4,47.4,30.06,ENE,58,2.0,5.0,83,0.00,,SKC,0.00,VWS V14.01,2013-10-18 14:21:00,
2013-10-18 10:26:00,52.7,47.7,30.06,North,11,1.0,5.0,83,0.00,,SKC,0.00,VWS V14.01,2013-10-18 14:26:00,
2013-10-18 10:30:00,52.9,47.2,30.06,SSW,201,1.0,5.0,81,0.00,,SKC,0.00,VWS V14.01,2013-10-18 14:30:00,
2013-10-18 10:31:00,53.0,47.0,30.06,WSW,257,1.0,3.0,80,0.00,,SKC,0.00,VWS V14.01,2013-10-18 14:31:00,
2013-10-18 10:36:00,53.5,47.2,30.06,NNW,336,1.0,5.0,79,0.00,,SKC,0.00,VWS V14.01,2013-10-18 14:36:00,
2013-10-18 10:41:00,53.4,46.7,30.06,NW,323,1.0,7.0,78,0.00,,SKC,0.00,VWS V14.01,2013-10-18 14:41:00,
2013-10-18 10:45:00,53.5,47.5,30.07,WSW,249,4.0,7.0,80,0.00,,SKC,0.00,VWS V14.01,2013-10-18 14:45:00,
2013-10-18 10:50:00,53.7,46.7,30.07,WSW,248,2.0,7.0,77,0.00,,SKC,0.00,VWS V14.01,2013-10-18 14:50:00,
2013-10-18 10:55:00,54.0,47.0,30.06,NE,53,3.0,7.0,77,0.00,,SKC,0.00,VWS V14.01,2013-10-18 14:55:00,
2013-10-18 11:00:00,54.5,47.5,30.06,North,349,1.0,2.0,77,0.00,,SKC,0.00,VWS V14.01,2013-10-18 15:00:00,
2013-10-18 11:05:00,54.8,47.7,30.06,WNW,283,1.0,2.0,77,0.00,,SKC,0.00,VWS V14.01,2013-10-18 15:05:00,
2013-10-18 11:10:00,55.2,47.8,30.06,NW,316,3.0,5.0,76,0.00,,SKC,0.00,VWS V14.01,2013-10-18 15:10:00,
2013-10-18 11:15:00,55.1,47.0,30.06,NNE,20,1.0,5.0,74,0.00,,SKC,0.00,VWS V14.01,2013-10-18 15:15:00,
2013-10-18 11:20:00,55.5,47.4,30.06,WNW,297,3.0,5.0,74,0.00,,SKC,0.00,VWS V14.01,2013-10-18 15:20:00,
2013-10-18 11:25:00,55.7,46.5,30.06,NNW,338,0.0,5.0,71,0.00,,SKC,0.00,VWS V14.01,2013-10-18 15:25:00,
2013-10-18 11:30:00,56.1,47.2,30.06,NNE,26,0.0,2.0,72,0.00,,SKC,0.00,VWS V14.01,2013-10-18 15:30:00,
2013-10-18 11:35:00,56.5,48.0,30.06,NNE,25,0.0,3.0,73,0.00,,SKC,0.00,VWS V14.01,2013-10-18 15:35:00,
2013-10-18 11:40:00,57.1,47.8,30.05,NNE,30,0.0,3.0,71,0.00,,SKC,0.00,VWS V14.01,2013-10-18 15:40:00,
2013-10-18 11:45:00,57.7,48.0,30.05,NNE,22,5.0,6.0,70,0.00,,SKC,0.00,VWS V14.01,2013-10-18 15:45:00,
2013-10-18 11:50:00,57.4,47.3,30.05,NE,35,0.0,6.0,69,0.00,,SKC,0.00,VWS V14.01,2013-10-18 15:50:00,
2013-10-18 11:55:00,57.6,47.5,30.05,NW,324,1.0,6.0,69,0.00,,SKC,0.00,VWS V14.01,2013-10-18 15:55:00,
2013-10-18 12:00:00,57.9,48.2,30.05,North,10,3.0,3.0,70,0.00,,SKC,0.00,VWS V14.01,2013-10-18 16:00:00,
2013-10-18 12:05:00,58.1,48.0,30.05,NE,46,3.0,4.0,69,0.00,,SKC,0.00,VWS V14.01,2013-10-18 16:05:00,
2013-10-18 12:10:00,58.4,48.3,30.05,South,179,1.0,4.0,69,0.00,,SKC,0.00,VWS V14.01,2013-10-18 16:10:00,
2013-10-18 12:15:00,59.4,49.6,30.04,ENE,77,0.0,4.0,70,0.00,,SKC,0.00,VWS V14.01,2013-10-18 16:15:00,
2013-10-18 12:20:00,60.4,49.0,30.04,ENE,68,1.0,4.0,66,0.00,,SKC,0.00,VWS V14.01,2013-10-18 16:20:00,
2013-10-18 12:25:00,60.7,48.9,30.04,WNW,287,1.0,4.0,65,0.00,,SKC,0.00,VWS V14.01,2013-10-18 16:25:00,
2013-10-18 12:30:00,60.4,49.0,30.03,West,262,2.0,3.0,66,0.00,,SKC,0.00,VWS V14.01,2013-10-18 16:30:00,
2013-10-18 12:35:00,60.3,49.3,30.03,NNW,330,3.0,7.0,67,0.00,,SKC,0.00,VWS V14.01,2013-10-18 16:35:00,
2013-10-18 12:40:00,60.2,48.8,30.03,NNE,23,1.0,7.0,66,0.00,,SKC,0.00,VWS V14.01,2013-10-18 16:40:00,
2013-10-18 12:45:00,60.1,48.7,30.03,NE,37,2.0,7.0,66,0.00,,SKC,0.00,VWS V14.01,2013-10-18 16:45:00,
2013-10-18 12:50:00,60.1,48.7,30.02,NE,39,0.0,7.0,66,0.00,,SKC,0.00,VWS V14.01,2013-10-18 16:50:00,
2013-10-18 12:55:00,60.8,49.0,30.02,NE,41,3.0,7.0,65,0.00,,SKC,0.00,VWS V14.01,2013-10-18 16:55:00,
2013-10-18 13:00:00,61.1,50.1,30.02,NE,46,3.0,5.0,67,0.00,,SKC,0.00,VWS V14.01,2013-10-18 17:00:00,
2013-10-18 13:05:00,61.4,49.5,30.01,NW,311,2.0,5.0,65,0.00,,SKC,0.00,VWS V14.01,2013-10-18 17:05:00,
2013-10-18 13:10:00,61.2,49.3,30.01,NNW,335,3.0,7.0,65,0.00,,SKC,0.00,VWS V14.01,2013-10-18 17:10:00,
2013-10-18 13:15:00,61.0,48.3,30.01,WSW,239,3.0,7.0,63,0.00,,SKC,0.00,VWS V14.01,2013-10-18 17:15:00,
2013-10-18 13:20:00,61.4,48.3,30.01,WNW,301,2.0,7.0,62,0.00,,SKC,0.00,VWS V14.01,2013-10-18 17:20:00,
2013-10-18 13:25:00,62.0,48.8,30.00,NE,43,1.0,7.0,62,0.00,,SKC,0.00,VWS V14.01,2013-10-18 17:25:00,
2013-10-18 13:30:00,63.0,49.8,30.00,NW,304,3.0,3.0,62,0.00,,SKC,0.00,VWS V14.01,2013-10-18 17:30:00,
2013-10-18 13:35:00,63.7,50.5,30.00,SSW,196,2.0,4.0,62,0.00,,SKC,0.00,VWS V14.01,2013-10-18 17:35:00,
2013-10-18 13:40:00,63.9,49.8,30.00,WNW,298,0.0,4.0,60,0.00,,SKC,0.00,VWS V14.01,2013-10-18 17:40:00,
2013-10-18 13:45:00,64.8,51.0,30.00,NNE,20,1.0,4.0,61,0.00,,SKC,0.00,VWS V14.01,2013-10-18 17:45:00,
2013-10-18 13:50:00,64.2,48.2,30.00,SW,222,2.0,4.0,56,0.00,,SKC,0.00,VWS V14.01,2013-10-18 17:50:00,
2013-10-18 13:55:00,64.2,48.7,29.99,SW,233,1.0,5.0,57,0.00,,SKC,0.00,VWS V14.01,2013-10-18 17:55:00,
2013-10-18 14:00:00,64.4,48.4,29.99,ESE,121,1.0,1.0,56,0.00,,SKC,0.00,VWS V14.01,2013-10-18 18:00:00,
2013-10-18 14:05:00,64.5,48.5,29.99,SSW,197,1.0,3.0,56,0.00,,SKC,0.00,VWS V14.01,2013-10-18 18:05:00,
2013-10-18 14:10:00,64.9,47.9,29.99,NE,36,1.0,3.0,54,0.00,,SKC,0.00,VWS V14.01,2013-10-18 18:10:00,
2013-10-18 14:15:00,65.4,50.2,29.99,NNW,327,1.0,3.0,58,0.00,,SKC,0.00,VWS V14.01,2013-10-18 18:15:00,
2013-10-18 14:20:00,66.1,50.4,29.98,WSW,239,1.0,3.0,57,0.00,,SKC,0.00,VWS V14.01,2013-10-18 18:20:00,
2013-10-18 14:25:00,65.4,48.8,29.98,WSW,256,1.0,5.0,55,0.00,,SKC,0.00,VWS V14.01,2013-10-18 18:25:00,
2013-10-18 14:30:00,65.7,49.6,29.98,West,266,1.0,5.0,56,0.00,,SKC,0.00,VWS V14.01,2013-10-18 18:30:00,
2013-10-18 14:35:00,66.4,48.3,29.97,South,181,1.0,5.0,52,0.00,,SKC,0.00,VWS V14.01,2013-10-18 18:35:00,
2013-10-18 14:40:00,66.6,49.0,29.97,NW,326,1.0,6.0,53,0.00,,SKC,0.00,VWS V14.01,2013-10-18 18:40:00,
2013-10-18 14:45:00,66.3,49.2,29.97,NW,316,2.0,6.0,54,0.00,,SKC,0.00,VWS V14.01,2013-10-18 18:45:00,
2013-10-18 14:50:00,66.0,48.4,29.97,WNW,297,1.0,6.0,53,0.00,,SKC,0.00,VWS V14.01,2013-10-18 18:50:00,
2013-10-18 14:55:00,66.2,50.1,29.97,WNW,294,0.0,6.0,56,0.00,,SKC,0.00,VWS V14.01,2013-10-18 18:55:00,
2013-10-18 15:00:00,67.0,49.3,29.97,WSW,239,1.0,6.0,53,0.00,,SKC,0.00,VWS V14.01,2013-10-18 19:00:00,
2013-10-18 15:05:00,67.1,50.4,29.96,WSW,250,1.0,2.0,55,0.00,,SKC,0.00,VWS V14.01,2013-10-18 19:05:00,
2013-10-18 15:09:00,67.7,50.0,29.96,ENE,70,0.0,2.0,53,0.00,,SKC,0.00,VWS V14.01,2013-10-18 19:09:00,
2013-10-18 15:14:00,68.1,50.3,29.96,WNW,282,1.0,2.0,53,0.00,,SKC,0.00,VWS V14.01,2013-10-18 19:14:00,
2013-10-18 15:19:00,68.3,50.5,29.96,WNW,288,0.0,2.0,53,0.00,,SKC,0.00,VWS V14.01,2013-10-18 19:19:00,
2013-10-18 15:24:00,68.6,50.8,29.96,WSW,239,1.0,3.0,53,0.00,,SKC,0.00,VWS V14.01,2013-10-18 19:24:00,
2013-10-18 15:29:00,68.4,50.6,29.96,ESE,108,2.0,4.0,53,0.00,,SKC,0.00,VWS V14.01,2013-10-18 19:29:00,
2013-10-18 15:30:00,68.4,50.6,29.96,ESE,110,1.0,4.0,53,0.00,,SKC,0.00,VWS V14.01,2013-10-18 19:30:00,
2013-10-18 15:34:00,68.8,52.5,29.96,West,280,1.0,2.0,56,0.00,,SKC,0.00,VWS V14.01,2013-10-18 19:34:00,
2013-10-18 15:39:00,69.2,50.3,29.96,North,3,1.0,2.0,51,0.00,,SKC,0.00,VWS V14.01,2013-10-18 19:39:00,
2013-10-18 15:44:00,69.6,50.7,29.95,NNW,332,1.0,4.0,51,0.00,,SKC,0.00,VWS V14.01,2013-10-18 19:44:00,
2013-10-18 15:49:00,68.9,50.0,29.95,NW,326,1.0,5.0,51,0.00,,SKC,0.00,VWS V14.01,2013-10-18 19:49:00,
2013-10-18 15:54:00,68.2,49.4,29.95,NNW,340,4.0,5.0,51,0.00,,SKC,0.00,VWS V14.01,2013-10-18 19:54:00,
2013-10-18 15:59:00,68.0,50.8,29.95,NW,319,1.0,5.0,54,0.00,,SKC,0.00,VWS V14.01,2013-10-18 19:59:00,
2013-10-18 16:00:00,68.0,50.8,29.95,NNW,345,2.0,5.0,54,0.00,,SKC,0.00,VWS V14.01,2013-10-18 20:00:00,
2013-10-18 16:04:00,68.0,50.8,29.95,NW,323,1.0,4.0,54,0.00,,SKC,0.00,VWS V14.01,2013-10-18 20:04:00,
2013-10-18 16:09:00,68.3,50.5,29.95,NW,308,3.0,4.0,53,0.00,,SKC,0.00,VWS V14.01,2013-10-18 20:09:00,
2013-10-18 16:14:00,68.1,49.3,29.95,NNW,337,2.0,4.0,51,0.00,,SKC,0.00,VWS V14.01,2013-10-18 20:14:00,
2013-10-18 16:19:00,67.9,49.7,29.95,NNW,338,4.0,8.0,52,0.00,,SKC,0.00,VWS V14.01,2013-10-18 20:19:00,
2013-10-18 16:24:00,67.4,49.7,29.95,NNE,31,4.0,8.0,53,0.00,,SKC,0.00,VWS V14.01,2013-10-18 20:24:00,
2013-10-18 16:29:00,67.3,50.1,29.95,NW,321,1.0,8.0,54,0.00,,SKC,0.00,VWS V14.01,2013-10-18 20:29:00,
2013-10-18 16:30:00,67.3,50.1,29.95,WNW,300,1.0,8.0,54,0.00,,SKC,0.00,VWS V14.01,2013-10-18 20:30:00,
2013-10-18 16:34:00,67.0,50.3,29.95,WNW,285,6.0,8.0,55,0.00,,SKC,0.00,VWS V14.01,2013-10-18 20:34:00,
2013-10-18 16:39:00,66.7,49.5,29.95,WNW,303,5.0,8.0,54,0.00,,SKC,0.00,VWS V14.01,2013-10-18 20:39:00,
2013-10-18 16:44:00,66.8,50.6,29.95,WNW,293,1.0,8.0,56,0.00,,SKC,0.00,VWS V14.01,2013-10-18 20:44:00,
2013-10-18 16:49:00,67.2,50.5,29.95,NNE,16,4.0,8.0,55,0.00,,SKC,0.00,VWS V14.01,2013-10-18 20:49:00,
2013-10-18 16:54:00,66.6,50.4,29.95,NNE,19,6.0,8.0,56,0.00,,SKC,0.00,VWS V14.01,2013-10-18 20:54:00,
2013-10-18 16:59:00,66.0,49.4,29.95,NNW,333,4.0,8.0,55,0.00,,SKC,0.00,VWS V14.01,2013-10-18 20:59:00,
2013-10-18 17:00:00,66.0,49.4,29.95,NNW,338,5.0,8.0,55,0.00,,SKC,0.00,VWS V14.01,2013-10-18 21:00:00,
2013-10-18 17:04:00,65.8,51.1,29.95,NNW,340,2.0,5.0,59,0.00,,SKC,0.00,VWS V14.01,2013-10-18 21:04:00,
2013-10-18 17:09:00,65.5,49.9,29.95,North,352,2.0,6.0,57,0.00,,SKC,0.00,VWS V14.01,2013-10-18 21:09:00,
2013-10-18 17:14:00,65.3,50.6,29.95,North,6,3.0,6.0,59,0.00,,SKC,0.00,VWS V14.01,2013-10-18 21:14:00,
2013-10-18 17:19:00,65.1,50.0,29.95,NNW,338,4.0,8.0,58,0.00,,SKC,0.00,VWS V14.01,2013-10-18 21:19:00,
2013-10-18 17:24:00,64.7,50.1,29.95,NNW,339,5.0,8.0,59,0.00,,SKC,0.00,VWS V14.01,2013-10-18 21:24:00,
2013-10-18 17:29:00,64.3,49.7,29.95,WNW,302,4.0,9.0,59,0.00,,SKC,0.00,VWS V14.01,2013-10-18 21:29:00,
2013-10-18 17:30:00,64.3,49.7,29.95,WNW,302,3.0,9.0,59,0.00,,SKC,0.00,VWS V14.01,2013-10-18 21:30:00,
2013-10-18 17:34:00,63.9,49.8,29.95,North,357,6.0,8.0,60,0.00,,SKC,0.00,VWS V14.01,2013-10-18 21:34:00,
2013-10-18 17:39:00,63.5,49.4,29.95,NNW,347,4.0,9.0,60,0.00,,SKC,0.00,VWS V14.01,2013-10-18 21:39:00,
2013-10-18 17:44:00,63.4,49.7,29.95,NNE,26,3.0,9.0,61,0.00,,SKC,0.00,VWS V14.01,2013-10-18 21:44:00,
2013-10-18 17:49:00,63.3,49.6,29.95,North,356,3.0,10.0,61,0.00,,SKC,0.00,VWS V14.01,2013-10-18 21:49:00,
2013-10-18 17:54:00,63.0,49.8,29.95,North,357,4.0,10.0,62,0.00,,SKC,0.00,VWS V14.01,2013-10-18 21:54:00,
2013-10-18 17:59:00,62.7,49.9,29.95,North,8,4.0,10.0,63,0.00,,SKC,0.00,VWS V14.01,2013-10-18 21:59:00,
2013-10-18 18:00:00,62.7,49.5,29.95,North,349,4.0,10.0,62,0.00,,SKC,0.00,VWS V14.01,2013-10-18 22:00:00,
2013-10-18 18:04:00,62.2,49.5,29.96,NW,325,2.0,7.0,63,0.00,,SKC,0.00,VWS V14.01,2013-10-18 22:04:00,
2013-10-18 18:09:00,61.7,49.4,29.96,NNE,23,1.0,7.0,64,0.00,,SKC,0.00,VWS V14.01,2013-10-18 22:09:00,
2013-10-18 18:14:00,61.3,49.5,29.96,NW,316,2.0,7.0,65,0.00,,SKC,0.00,VWS V14.01,2013-10-18 22:14:00,
2013-10-18 18:19:00,60.9,49.1,29.96,North,360,2.0,7.0,65,0.00,,SKC,0.00,VWS V14.01,2013-10-18 22:19:00,
2013-10-18 18:24:00,60.5,49.1,29.96,North,355,1.0,7.0,66,0.00,,SKC,0.00,VWS V14.01,2013-10-18 22:24:00,
2013-10-18 18:29:00,60.2,49.2,29.96,NNW,348,1.0,7.0,67,0.00,,SKC,0.00,VWS V14.01,2013-10-18 22:29:00,
2013-10-18 18:30:00,60.2,49.2,29.96,North,349,1.0,7.0,67,0.00,,SKC,0.00,VWS V14.01,2013-10-18 22:30:00,
2013-10-18 18:34:00,59.9,48.9,29.96,North,349,0.0,1.0,67,0.00,,SKC,0.00,VWS V14.01,2013-10-18 22:34:00,
2013-10-18 18:39:00,59.5,48.9,29.96,NNW,348,0.0,1.0,68,0.00,,SKC,0.00,VWS V14.01,2013-10-18 22:39:00,
2013-10-18 18:44:00,59.2,49.0,29.96,NNW,342,0.0,3.0,69,0.00,,SKC,0.00,VWS V14.01,2013-10-18 22:44:00,
2013-10-18 18:49:00,58.9,49.2,29.96,NNW,343,0.0,3.0,70,0.00,,SKC,0.00,VWS V14.01,2013-10-18 22:49:00,
2013-10-18 18:54:00,58.6,48.9,29.96,NNW,342,0.0,3.0,70,0.00,,SKC,0.00,VWS V14.01,2013-10-18 22:54:00,
2013-10-18 18:59:00,58.1,49.1,29.97,NNW,342,0.0,3.0,72,0.00,,SKC,0.00,VWS V14.01,2013-10-18 22:59:00,
2013-10-18 19:00:00,58.1,49.1,29.97,NNW,342,0.0,3.0,72,0.00,,SKC,0.00,VWS V14.01,2013-10-18 23:00:00,
2013-10-18 19:04:00,57.8,48.1,29.97,North,359,2.0,2.0,70,0.00,,SKC,0.00,VWS V14.01,2013-10-18 23:04:00,
2013-10-18 19:09:00,57.9,48.6,29.97,North,356,0.0,2.0,71,0.00,,SKC,0.00,VWS V14.01,2013-10-18 23:09:00,
2013-10-18 19:14:00,57.7,49.1,29.97,North,357,1.0,2.0,73,0.00,,SKC,0.00,VWS V14.01,2013-10-18 23:14:00,
2013-10-18 19:19:00,57.4,48.8,29.97,North,357,0.0,2.0,73,0.00,,SKC,0.00,VWS V14.01,2013-10-18 23:19:00,
2013-10-18 19:24:00,57.3,47.6,29.98,NNW,333,0.0,3.0,70,0.00,,SKC,0.00,VWS V14.01,2013-10-18 23:24:00,
2013-10-18 19:29:00,57.5,48.6,29.98,NNW,333,0.0,3.0,72,0.00,,SKC,0.00,VWS V14.01,2013-10-18 23:29:00,
2013-10-18 19:30:00,57.4,48.5,29.98,NNW,333,0.0,3.0,72,0.00,,SKC,0.00,VWS V14.01,2013-10-18 23:30:00,
2013-10-18 19:34:00,57.3,48.7,29.98,NNW,333,0.0,1.0,73,0.00,,SKC,0.00,VWS V14.01,2013-10-18 23:34:00,
2013-10-18 19:39:00,57.1,48.2,29.98,NNW,333,0.0,1.0,72,0.00,,SKC,0.00,VWS V14.01,2013-10-18 23:39:00,
2013-10-18 19:44:00,56.8,47.5,29.98,NNW,333,0.0,1.0,71,0.00,,SKC,0.00,VWS V14.01,2013-10-18 23:44:00,
2013-10-18 19:49:00,56.8,47.9,29.98,NNW,333,0.0,1.0,72,0.00,,SKC,0.00,VWS V14.01,2013-10-18 23:49:00,
2013-10-18 19:54:00,57.0,48.1,29.98,NE,37,0.0,2.0,72,0.00,,SKC,0.00,VWS V14.01,2013-10-18 23:54:00,
2013-10-18 19:59:00,56.9,48.0,29.98,NE,37,0.0,2.0,72,0.00,,SKC,0.00,VWS V14.01,2013-10-18 23:59:00,
2013-10-18 20:00:00,56.9,48.0,29.98,NE,37,0.0,2.0,72,0.00,,SKC,0.00,VWS V14.01,2013-10-19 00:00:00,
2013-10-18 20:04:00,56.7,48.5,29.98,NE,37,0.0,1.0,74,0.00,,SKC,0.00,VWS V14.01,2013-10-19 00:04:00,
2013-10-18 20:09:00,56.3,48.5,29.98,NE,37,0.0,1.0,75,0.00,,SKC,0.00,VWS V14.01,2013-10-19 00:09:00,
2013-10-18 20:14:00,56.0,47.8,29.98,NE,37,0.0,1.0,74,0.00,,SKC,0.00,VWS V14.01,2013-10-19 00:14:00,
2013-10-18 20:19:00,55.6,48.9,29.98,NE,41,1.0,1.0,78,0.00,,SKC,0.00,VWS V14.01,2013-10-19 00:19:00,
2013-10-18 20:24:00,55.2,48.8,29.98,NE,41,0.0,1.0,79,0.00,,SKC,0.00,VWS V14.01,2013-10-19 00:24:00,
2013-10-18 20:29:00,54.8,48.4,29.98,NE,41,0.0,1.0,79,0.00,,SKC,0.00,VWS V14.01,2013-10-19 00:29:00,
2013-10-18 20:30:00,54.8,48.4,29.98,NE,41,0.0,1.0,79,0.00,,SKC,0.00,VWS V14.01,2013-10-19 00:30:00,
2013-10-18 20:34:00,54.5,48.1,29.98,NE,41,0.0,0.0,79,0.00,,SKC,0.00,VWS V14.01,2013-10-19 00:34:00,
2013-10-18 20:39:00,54.2,48.2,29.98,NE,41,0.0,0.0,80,0.00,,SKC,0.00,VWS V14.01,2013-10-19 00:39:00,
2013-10-18 20:44:00,54.0,48.0,29.98,NE,41,0.0,1.0,80,0.00,,SKC,0.00,VWS V14.01,2013-10-19 00:44:00,
2013-10-18 20:49:00,53.8,48.4,29.99,NE,41,0.0,1.0,82,0.00,,SKC,0.00,VWS V14.01,2013-10-19 00:49:00,
2013-10-18 20:54:00,53.5,48.2,29.99,NE,41,0.0,1.0,82,0.00,,SKC,0.00,VWS V14.01,2013-10-19 00:54:00,
2013-10-18 20:59:00,53.5,48.5,29.99,NE,41,0.0,1.0,83,0.00,,SKC,0.00,VWS V14.01,2013-10-19 00:59:00,
2013-10-18 21:00:00,53.5,48.5,29.99,NE,41,0.0,1.0,83,0.00,,SKC,0.00,VWS V14.01,2013-10-19 01:00:00,
2013-10-18 21:04:00,53.4,48.4,29.99,NE,41,0.0,0.0,83,0.00,,SKC,0.00,VWS V14.01,2013-10-19 01:04:00,
2013-10-18 21:09:00,53.5,48.5,29.99,NE,41,0.0,0.0,83,0.00,,SKC,0.00,VWS V14.01,2013-10-19 01:09:00,
2013-10-18 21:14:00,53.7,48.7,29.99,NE,41,0.0,0.0,83,0.00,,SKC,0.00,VWS V14.01,2013-10-19 01:14:00,
2013-10-18 21:19:00,53.9,49.2,29.99,NE,41,0.0,0.0,84,0.00,,SKC,0.00,VWS V14.01,2013-10-19 01:19:00,
2013-10-18 21:24:00,54.2,49.8,29.99,NE,41,0.0,0.0,85,0.00,,SKC,0.00,VWS V14.01,2013-10-19 01:24:00,
2013-10-18 21:29:00,54.2,49.8,29.99,NE,41,0.0,0.0,85,0.00,,SKC,0.00,VWS V14.01,2013-10-19 01:29:00,
2013-10-18 21:30:00,54.2,49.8,29.99,NE,41,0.0,0.0,85,0.00,,SKC,0.00,VWS V14.01,2013-10-19 01:30:00,
2013-10-18 21:34:00,54.2,49.5,29.99,NE,41,0.0,0.0,84,0.00,,SKC,0.00,VWS V14.01,2013-10-19 01:34:00,
2013-10-18 21:39:00,54.4,50.3,29.99,NE,41,0.0,0.0,86,0.00,,SKC,0.00,VWS V14.01,2013-10-19 01:39:00,
2013-10-18 21:44:00,54.4,50.0,29.99,NE,41,0.0,0.0,85,0.00,,SKC,0.00,VWS V14.01,2013-10-19 01:44:00,
2013-10-18 21:49:00,54.3,50.2,29.99,NE,41,0.0,0.0,86,0.00,,SKC,0.00,VWS V14.01,2013-10-19 01:49:00,
2013-10-18 21:54:00,54.3,49.9,29.99,NE,41,0.0,0.0,85,0.00,,SKC,0.00,VWS V14.01,2013-10-19 01:54:00,
2013-10-18 21:59:00,54.3,49.6,29.99,NE,41,0.0,0.0,84,0.00,,SKC,0.00,VWS V14.01,2013-10-19 01:59:00,
2013-10-18 22:00:00,54.3,49.6,29.99,NE,41,0.0,0.0,84,0.00,,SKC,0.00,VWS V14.01,2013-10-19 02:00:00,
2013-10-18 22:04:00,54.1,49.4,29.99,NE,41,0.0,0.0,84,0.00,,SKC,0.00,VWS V14.01,2013-10-19 02:04:00,
2013-10-18 22:09:00,53.8,49.1,29.99,NE,41,0.0,0.0,84,0.00,,SKC,0.00,VWS V14.01,2013-10-19 02:09:00,
2013-10-18 22:14:00,53.5,49.4,30.00,NE,41,0.0,0.0,86,0.00,,SKC,0.00,VWS V14.01,2013-10-19 02:14:00,
2013-10-18 22:19:00,53.3,49.5,29.99,NE,41,0.0,1.0,87,0.00,,SKC,0.00,VWS V14.01,2013-10-19 02:19:00,
2013-10-18 22:24:00,53.2,49.4,30.00,NE,41,0.0,1.0,87,0.00,,SKC,0.00,VWS V14.01,2013-10-19 02:24:00,
2013-10-18 22:29:00,53.1,49.3,29.99,NE,41,0.0,1.0,87,0.00,,SKC,0.00,VWS V14.01,2013-10-19 02:29:00,
2013-10-18 22:30:00,53.1,49.3,29.99,NE,41,0.0,1.0,87,0.00,,SKC,0.00,VWS V14.01,2013-10-19 02:30:00,
2013-10-18 22:34:00,53.0,49.5,30.00,NE,41,0.0,1.0,88,0.00,,SKC,0.00,VWS V14.01,2013-10-19 02:34:00,
2013-10-18 22:39:00,52.8,49.3,29.99,NE,41,1.0,1.0,88,0.00,,SKC,0.00,VWS V14.01,2013-10-19 02:39:00,
2013-10-18 22:44:00,52.6,49.2,30.00,NE,41,0.0,1.0,88,0.00,,SKC,0.00,VWS V14.01,2013-10-19 02:44:00,
2013-10-18 22:49:00,52.3,48.9,30.00,NE,41,0.0,1.0,88,0.00,,SKC,0.00,VWS V14.01,2013-10-19 02:49:00,
2013-10-18 22:54:00,52.1,48.7,30.00,NE,41,0.0,1.0,88,0.00,,SKC,0.00,VWS V14.01,2013-10-19 02:54:00,
2013-10-18 22:59:00,51.7,48.3,30.00,NE,41,0.0,1.0,88,0.00,,SKC,0.00,VWS V14.01,2013-10-19 02:59:00,
2013-10-18 23:00:00,51.7,48.3,30.00,NE,41,0.0,1.0,88,0.00,,SKC,0.00,VWS V14.01,2013-10-19 03:00:00,
2013-10-18 23:04:00,51.5,48.4,30.00,NE,41,0.0,1.0,89,0.00,,SKC,0.00,VWS V14.01,2013-10-19 03:04:00,
2013-10-18 23:09:00,51.2,48.1,30.00,NE,41,0.0,1.0,89,0.00,,SKC,0.00,VWS V14.01,2013-10-19 03:09:00,
2013-10-18 23:14:00,51.0,48.2,30.00,NE,41,0.0,1.0,90,0.00,,SKC,0.00,VWS V14.01,2013-10-19 03:14:00,
2013-10-18 23:19:00,50.9,48.1,30.00,NE,41,0.0,1.0,90,0.00,,SKC,0.00,VWS V14.01,2013-10-19 03:19:00,
2013-10-18 23:24:00,50.7,48.2,30.00,NE,41,0.0,1.0,91,0.00,,SKC,0.00,VWS V14.01,2013-10-19 03:24:00,
2013-10-18 23:29:00,50.5,48.0,30.00,NE,41,0.0,1.0,91,0.00,,SKC,0.00,VWS V14.01,2013-10-19 03:29:00,
2013-10-18 23:30:00,50.5,48.0,30.00,NE,41,0.0,1.0,91,0.00,,SKC,0.00,VWS V14.01,2013-10-19 03:30:00,
2013-10-18 23:34:00,50.2,47.7,30.00,NE,41,0.0,0.0,91,0.00,,SKC,0.00,VWS V14.01,2013-10-19 03:34:00,
2013-10-18 23:39:00,50.1,47.9,30.00,NE,41,0.0,0.0,92,0.00,,SKC,0.00,VWS V14.01,2013-10-19 03:39:00,
2013-10-18 23:44:00,50.0,47.8,29.99,NE,41,0.0,0.0,92,0.00,,SKC,0.00,VWS V14.01,2013-10-19 03:44:00,
2013-10-18 23:49:00,49.7,47.5,29.99,NE,41,0.0,0.0,92,0.00,,SKC,0.00,VWS V14.01,2013-10-19 03:49:00,
2013-10-18 23:54:00,49.5,47.6,30.00,NE,41,0.0,0.0,93,0.00,,SKC,0.00,VWS V14.01,2013-10-19 03:54:00,
2013-10-18 23:59:00,49.4,47.5,30.00,NE,41,0.0,0.0,93,0.00,,SKC,0.00,VWS V14.01,2013-10-19 03:59:00,